Regional Weather Roundup
Issued by NWS

Home | Current Version | Previous Version | Graphics & Text | Print | Product List | Glossary Off
Versions: 1 2 3 4 5 6 7 8 9 10 11 12 13 14 15 16 17 18 19 20 21 22 23 24 25 26 27 28 29 30 31 32 33 34 35 36 37 38 39 40 41 42 43 44 45 46 47 48 49 50

000
ASUS43 KMKX 210821
RWRWI

WISCONSIN REGIONAL WEATHER ROUNDUP
NATIONAL WEATHER SERVICE MILWAUKEE/SULLIVAN WI
300 AM CDT THU SEP 21 2017

NOTE: "FAIR" INDICATES FEW OR NO CLOUDS BELOW 12,000 FEET WITH NO
SIGNIFICANT WEATHER AND/OR OBSTRUCTIONS TO VISIBILITY.

WIZ001-002-006>008-014>016-023>028-210900-
NORTHWEST WISCONSIN

CITY           SKY/WX    TMP DP  RH WIND       PRES   REMARKS
SUPERIOR ARPT  FOG       41  41 100 CALM      30.01S VSB 3/4
ASHLAND        CLEAR     47  45  93 W3        30.01F
HAYWARD        PTCLDY    41  40  96 CALM      30.02S
SIREN          CLEAR     43  41  93 CALM      30.02S
CUMBERLAND     CLEAR     45  43  93 NW3       30.01F
RICE LAKE      FOG       47  46  98 CALM      30.01F VSB 1/2
CHETEK           N/A     49  49 100 CALM      30.01S FOG
LADYSMITH      CLEAR     53  51  94 CALM      30.02F
EAU CLAIRE     CLEAR     52  51  97 SE3       29.99S
MENOMONIE      CLEAR     54  53  97 CALM      30.00S
NEW RICHMOND   CLEAR     47  46  99 CALM      30.00F
OSCEOLA        CLEAR     46  46 100 CALM      30.03F
$$

WIZ003>005-009-010-017-018-210900-
NORTH CENTRAL WISCONSIN

CITY           SKY/WX    TMP DP  RH WIND       PRES   REMARKS
MANITOWISH WTR FOG       47  47 100 CALM      30.01S VSB 1/2
ARBOR VITAE    CLEAR     55  53  95 N6        30.00F FOG
WOODRUFF       CLEAR     55  53  95 N6        30.00F FOG
RHINELANDER    FOG       56  56 100 CALM      30.01S VSB 1
EAGLE RIVER    FOG       54  54 100 CALM      30.01S VSB 1/2
LAND O LAKES   CLEAR     51  51  98 CALM      30.02S FOG
PHILLIPS       FOG       47  47 100 CALM      30.01S VSB 3/4
TOMAHAWK       FOG       51  50  97 CALM      30.01S VSB 1/4
MEDFORD        FOG       51  51  99 CALM      29.99S VSB 1/2
MERRILL        FOG       54  54 100 CALM      29.99R VSB 1/4
$$

WIZ029-030-035-036-043>047-210900-
CENTRAL WISCONSIN

CITY           SKY/WX    TMP DP  RH WIND       PRES   REMARKS
WAUSAU         CLEAR     61  61 100 NW5       29.96S FOG
MOSINEE        CLEAR     61  61 100 N6        29.99F FOG
MARSHFIELD     CLEAR     59  57  93 N6        29.97F
STEVENS POINT  FOG       64  64 100 CALM      29.96F VSB 1/2
WAUPACA        CLOUDY    68  67  98 CALM      29.94F FOG
WAUTOMA        FOG       68  68 100 W3        29.95S VSB 1
WISC RAPIDS    MOCLDY    65  65 100 N6        29.96F FOG
CAMP DOUGLAS   FOG       61  61 100 CALM      29.94F VSB 1/2
$$

WIZ011>013-019>022-031-037>040-048>050-210900-
NORTHEAST WISCONSIN

CITY           SKY/WX    TMP DP  RH WIND       PRES   REMARKS
ANTIGO         MOCLDY    63  63 100 N6        29.99S FOG
SHAWANO        FOG       66  64  94 CALM      29.95F VSB 1/2
OCONTO         CLOUDY    65  65  97 CALM      29.92F
STURGEON BAY   CLOUDY    69  66  90 NW6       29.94S
GREEN BAY      CLOUDY    66  66 100 NW7       29.93F
MANITOWOC      MOCLDY    68  66  93 NW9       29.92R
APPLETON       MOCLDY    66  66 100 CALM      29.94R
CLINTONVILLE   NOT AVBL
OSHKOSH        CLOUDY    68  66  93 NW6       29.92F
$$

WIZ032>034-041-042-053>061-210900-
SOUTHWEST WISCONSIN

CITY           SKY/WX    TMP DP  RH WIND       PRES   REMARKS
LA CROSSE      NOT AVBL
SPARTA         FOG       56  56 100 CALM      29.95F VSB<1/4
VIROQUA        PTCLDY    62  62 100 CALM      29.95F
BOSCOBEL       PTCLDY    69  68  96 N5        29.92F FOG
PRAIRIE DU CHI CLOUDY    69  66  91 CALM      29.92F
PLATTEVILLE    CLOUDY    69  69 100 SE6       29.96R
$$

WIZ056-057-062-063-064-067-068-210900-
SOUTH CENTRAL WISCONSIN

CITY           SKY/WX    TMP DP  RH WIND       PRES   REMARKS
REEDSBURG      CLOUDY    67  67 100 CALM      29.94S
BARABOO/DELLS  CLOUDY    69  68  95 W3        29.94F FOG
LONE ROCK      CLOUDY    70  70 100 CALM      29.92F FOG
MINERAL POINT  CLOUDY    70  70 100 SE5       29.95F
MADISON        CLOUDY    70  69  97 CALM      29.93F FOG
MIDDLETON      CLOUDY    71  71 100 N3        29.93F
WATERTOWN      CLOUDY    68  68 100 CALM      29.92F
MONROE         CLOUDY    72  64  78 SE3       29.95S
JANESVILLE     CLOUDY    72  72 100 NE3       29.93F
$$

WIZ051-052-058>065-066-070>072-210900-
SOUTHEAST WISCONSIN

CITY           SKY/WX    TMP DP  RH WIND       PRES   REMARKS
MILWAUKEE      CLOUDY    70  67  90 SE6       29.93F
WAUKESHA       CLOUDY    66  64  94 CALM      29.95F
MILWAUKEE/TIMM CLOUDY    68  63  83 CALM      29.94F
RACINE         CLOUDY    69  66  90 CALM      29.96F
BURLINGTON     CLOUDY    69  69 100 CALM      29.95S
KENOSHA        CLOUDY    70  65  84 CALM      29.95F
FOND DU LAC    MOCLDY    70  66  87 SW5       29.91F
SHEBOYGAN      MOCLDY    68  68 100 SW7       29.90F
WEST BEND        N/A     66  66 100 S5        29.92F
JUNEAU         CLOUDY    67  66  97 CALM      29.95F
$$

LSZ147-162-210900-
LAKE SUPERIOR

STATION/POSITION TIME  TEMP    WIND        PRES    WAVE
                       AIR SEA DIR/SP/G            HT/PER
                 (UTC) (F)     (DEG/KT/KT) (MB)    (FT/S)
W MID LAKE BUOY  0750   57 54  330/  4/  4 1015.5F   1/ 3
DEVILS ISLAND    0800   60      CALM  /  1 1016.3R
PORT WING        0640          130/  1/  3 1015.9R
SAXON HARBOR     0730   52     200/  5/  6 1015.6S
$$

LMZ867-665-643>646-210900-
LAKE MICHIGAN

STATION/POSITION TIME  TEMP    WIND        PRES    WAVE
                       AIR SEA DIR/SP/G            HT/PER
                 (UTC) (F)     (DEG/KT/KT) (MB)    (FT/S)
S GREEN BAY BUOY 0800   69 66  310/ 12/ 16 1013.2
N MID LAKE BUOY  0750   67 65  320/  6/  8 1013.0F   3/ 6
NORTHPORT PIER   0740   70     310/  9/ 11 1012.9F
KEWAUNEE LAKESHO 0754   67     300/  3/  5 1012.0F
SHEBOYGAN LAKESH 0800   71     220/ 10/ 11 1011.7F
PORT WASHINGTON  0730   68     250/  4/  5 1014.2F
ATWATER BUOY     0709   67 66  210/  4/  6 1014.1
MILWAUKEE LAKESH 0800   69     170/  6/  7   N/A
S MID LAKE BUOY  0750   72 69   80/ 10/ 10 1013.5F   1/ 3
KENOSHA   LAKESH 0800   72     140/  2/  5 1013.9
$$

TC  - TEMPERATURE IN CELSIUS
VSB - VISIBILITY IN STATUTE MILES
WCI - WIND CHILL INDEX
HX  - HEAT INDEX




USA.gov is the U.S. government's official web portal to all federal, state and local government web resources and services.